Starlink 31990

operational
NORAD ID: 60024 Int'l Des: 2024-111 Owner: SPXS Country: US Constellation: starlink
LEOCIRCULAR

About Starlink 31990

Description loading...

Live Position

Loading 3D Globe...

Upcoming Passes

Altitude History

Altitude vs Time

uPlot chart will show altitude changes over time

Two-Line Element Set

1 60024U 24111J 25305.34401894 -.00000428 00000-0 -23091-5 0 9995
2 60024 53.1612 311.7491 0001392 80.6500 279.4658 15.30188926 79383
Epoch: Nov 1, 2025 • Age: 12 hours

Current Status

Altitude 489.6 km
Velocity 7.62 km/s
Sub-Earth Point -41.14°S, 80.97°W
Launch Date Jun 8, 2024
Age 1.3 years
Type internet

Technical Details

Classification Payload
Mass 730.00 kg
Dry Mass 700.00 kg
Total Mass 730.00 kg
Length 0.30 m
Diameter 4.10 m
Span 29.00 m
Shape Box + pan
Manufacturer SPXS
Bus Type Starlink V2M
Phase Status In Orbit
Owner/State SPXS/US

Large Constellations

Loading constellations...